Weather History for KROA - October, 2013

Change the Weather History Date:

Friday, October 18, 2013

  Actual Average Record
Temperature  
Mean Temperature 58 °F 57 °F  
Max Temperature 67 °F 68 °F 91 °F (1938)
Min Temperature 48 °F 46 °F 28 °F (1978)
Degree Days  
Heating Degree Days 7 8  
Month to date heating degree days 49 115  
Since 1 July heating degree days 83 164  
Cooling Degree Days 0 0  
Month to date cooling degree days 38 18  
Year to date cooling degree days 1225 1204  
Growing Degree Days 7 (Base 50)    
Moisture  
Dew Point 42 °F    
Average Humidity 60    
Maximum Humidity 80    
Minimum Humidity 40    
Precipitation  
Precipitation 0.00 in 0.09 in 3.43 in (1968)
Month to date precipitation 2.46 1.63  
Year to date precipitation 45.90 33.65  
Snow  
Snow 0.00 in - - ()
Month to date snowfall 0.0  
Since 1 July snowfall 0.0  
Since 1 September snowfall 0.0  
Snow Depth 0.00 in    
Sea Level Pressure  
Sea Level Pressure 30.01 in    
Wind  
Wind Speed 5 mph (WNW)    
Max Wind Speed 24 mph    
Max Gust Speed 30 mph    
Visibility 10 miles    
Events      
T = Trace of Precipitation, MM = Missing Value Source: NWS Daily Summary

Daily Weather History Graph

Daily Weather History Graph

Search for Another Location

Airport or City:

Trip Planner

Search our weather history database for the weather conditions in past years. The results will help you decide how hot, cold, wet, or windy it might be!

Date:

Astronomy

Oct. 18, 2013 Rise Set
Actual Time 7:30 AM EDT 6:38 PM EDT
Civil Twilight 7:04 AM EDT 7:04 PM EDT
Nautical Twilight 6:34 AM EDT 7:35 PM EDT
Astronomical Twilight 6:03 AM EDT 8:05 PM EDT
Moon 6:27 PM EDT (10/18) 7:04 AM EDT (10/18)
Length of Visible Light 12h 00m
Length of Day
11h 07m
Full, 100% of the Moon is Illuminated
Oct 18
Full
Oct 18
Full
Oct 26
Last Quarter
Nov 3
New
Nov 10
First Quarter

Hourly Weather History & Observations

Time (EDT) Temp. Dew Point Humidity Pressure Visibility Wind Dir Wind Speed Gust Speed Precip Events Conditions
12:54 AM 55.9 °F 46.0 °F 69% 29.95 in 10.0 mi NW 11.5 mph - N/A   Mostly Cloudy
1:54 AM 55.0 °F 42.1 °F 62% 29.96 in 10.0 mi NW 20.7 mph 29.9 mph N/A   Clear
2:54 AM 54.0 °F 42.1 °F 64% 29.97 in 10.0 mi WNW 10.4 mph - N/A   Clear
3:54 AM 54.0 °F 41.0 °F 62% 29.97 in 10.0 mi WNW 10.4 mph - N/A   Partly Cloudy
4:54 AM 53.1 °F 39.0 °F 59% 29.99 in 10.0 mi WNW 9.2 mph - N/A   Clear
5:54 AM 51.1 °F 39.0 °F 63% 29.99 in 10.0 mi NNW 5.8 mph - N/A   Clear
6:54 AM 48.9 °F 39.9 °F 71% 30.01 in 10.0 mi NW 5.8 mph - N/A   Clear
7:54 AM 48.9 °F 39.0 °F 69% 30.02 in 10.0 mi NNW 9.2 mph - N/A   Clear
8:54 AM 53.1 °F 39.9 °F 61% 30.04 in 10.0 mi West 4.6 mph - N/A   Clear
9:54 AM 57.0 °F 39.9 °F 53% 30.06 in 10.0 mi Variable 5.8 mph - N/A   Clear
10:54 AM 59.0 °F 39.9 °F 49% 30.06 in 10.0 mi Variable 4.6 mph - N/A   Clear
11:54 AM 61.0 °F 39.0 °F 44% 30.06 in 10.0 mi West 5.8 mph - N/A   Clear
12:54 PM 61.0 °F 39.9 °F 46% 30.04 in 10.0 mi Variable 4.6 mph - N/A   Clear
1:54 PM 62.1 °F 39.9 °F 44% 30.01 in 10.0 mi Variable 3.5 mph - N/A   Clear
2:54 PM 64.0 °F 41.0 °F 43% 29.99 in 10.0 mi SSE 3.5 mph - N/A   Clear
3:54 PM 66.9 °F 41.0 °F 39% 29.98 in 10.0 mi Variable 5.8 mph - N/A   Clear
4:54 PM 64.9 °F 39.9 °F 40% 29.98 in 10.0 mi Calm Calm - N/A   Clear
5:54 PM 62.1 °F 44.1 °F 52% 29.99 in 10.0 mi SE 6.9 mph - N/A   Clear
6:54 PM 59.0 °F 44.1 °F 58% 30.00 in 10.0 mi ESE 4.6 mph - N/A   Clear
7:54 PM 57.9 °F 44.1 °F 60% 30.01 in 10.0 mi SE 3.5 mph - N/A   Clear
8:54 PM 57.0 °F 45.0 °F 64% 30.01 in 10.0 mi South 3.5 mph - N/A   Clear
9:54 PM 55.0 °F 46.0 °F 72% 30.03 in 10.0 mi Calm Calm - N/A   Clear
10:54 PM 54.0 °F 46.0 °F 75% 30.02 in 10.0 mi Calm Calm - N/A   Clear
11:54 PM 50.0 °F 45.0 °F 83% 30.02 in 10.0 mi Calm Calm - N/A   Clear